Regional Weather Roundup
Issued by NWS Mt. Holly, NJ

Home | Current Version | Previous Version | Text Only | Print | Product List | Glossary On
Versions: 1 2 3 4 5 6 7 8 9 10 11 12 13 14 15 16 17 18 19 20 21 22 23 24 25 26 27
000
ASUS41 KPHI 171410
RWRPHI

REGIONAL WEATHER ROUNDUP
NATIONAL WEATHER SERVICE MOUNT HOLLY NJ
1000 AM EDT THU APR 17 2014

NOTE:  "FAIR" INDICATES FEW OR NO CLOUDS BELOW 12,000 FEET WITH NO
SIGNIFICANT WEATHER AND/OR OBSTRUCTIONS TO VISIBILITY.

 * = STATION DOES NOT REPORT PRECIPITATION (E.G. RAIN, SNOW, ETC.)
        OR FOG.

NJZ015>026-171500-
SOUTHERN NEW JERSEY

CITY           SKY/WX    TMP DP  RH WIND       PRES   REMARKS
POMONA         PTSUNNY   46  30  53 E18G28    30.69R
RIO GRANDE*    PTSUNNY   43  28  56 E16G23    30.69R
MILLVILLE      MOSUNNY   46  30  53 E13       30.67R
WRIGHTSTOWN    SUNNY     44  26  47 E15       30.68R
MOUNT HOLLY    MOSUNNY   44  28  53 E9        30.70R
TRENTON        SUNNY     43  24  47 E8        30.69R

$$
NJZ001>014-171500-
NORTHERN NEW JERSEY

CITY           SKY/WX    TMP DP  RH WIND       PRES   REMARKS
SUSSEX           N/A     42  21  43 NE10      30.70S
ANDOVER*         N/A     40  16  37 VRB3      30.70R
MORRISTOWN     MOSUNNY   41  18  38 E10       30.73R
NEWARK         MOSUNNY   42  21  43 E10G17    30.73R
TETERBORO      SUNNY     42  23  46 E13G20    30.73R
CALDWELL       SUNNY     40  19  43 E8G16     30.73R WCI  34
SOMERVILLE     SUNNY     43  24  47 E7        30.70R
ALLAIRE*       PTSUNNY   41  25  52 E16       30.71R
TOMS RIVER*    MOSUNNY   41  28  60 NE13      30.71R

$$
PAZ043-044-047-054-055-060>062-066>071-171500-
EASTERN PENNSYLVANIA

CITY           SKY/WX    TMP DP  RH WIND       PRES   REMARKS
PHILADELPHIA   MOSUNNY   46  29  51 E9        30.71R
NORTH PHILA    MOSUNNY   45  27  49 E12       30.71R
BLUE BELL      SUNNY     45  30  57 E10       30.68R
DOYLESTOWN     SUNNY     41  27  57 VRB5      30.68R
QUAKERTOWN*    SUNNY     41  25  52 E8        30.69R
POTTSTOWN      SUNNY     42  27  55 SE6       30.69S
LANCASTER      SUNNY     42  29  59 SE14      30.66R
COATESVILLE    SUNNY     43  27  52 E14G20    30.66R
READING        SUNNY     44  26  49 SE10      30.67S
ALLENTOWN      SUNNY     43  21  41 E9        30.69R
MOUNT POCONO   SUNNY     34  16  47 SE14      30.62R WCI  25
HAZLETON       SUNNY     37  19  48 SE8G18    30.64S WCI  31
WILKES BARRE   SUNNY     41  16  36 S10       30.65R

$$
DEZALL-MDZ008-012-015-019-020-171500-
DELAWARE AND EASTERN MARYLAND

CITY           SKY/WX    TMP DP  RH WIND       PRES   REMARKS
WILMINGTON     MOSUNNY   45  30  55 E13       30.69R
DOVER          CLOUDY    45  34  64 E15G21    30.64R
GEORGETOWN     CLOUDY    46  31  55 E15       30.67R
EASTON         PTSUNNY   46  36  66 E13       30.70R
PATUXENT       PTSUNNY   46  32  58 E13       30.65R
OCEAN CITY     CLOUDY    46  32  58 E13G21    30.66R
WALLOPS ISLAND PTSUNNY   48  34  58 E17G25    30.65R
CAMBRIDGE      MOSUNNY   46  32  57 E10       30.66R
SALISBURY      CLOUDY    46  31  55 E13       30.66R

$$
PAZ001-021-NYZ056-072-MDZ011-DCZ001-171500-
OTHER NEARBY LOCATIONS

CITY           SKY/WX    TMP DP  RH WIND       PRES   REMARKS
HARRISBURG     PTSUNNY   45  26  47 SE12      30.67R
STATE COLLEGE  SUNNY     41  21  45 SE12G17   30.59S
WILLIAMSPORT   MOSUNNY   42  19  39 SE8       30.64S
BINGHAMTON     MOSUNNY   34  18  52 S14       30.61R WCI  25
NEW YORK CITY  SUNNY     41  24  51 E8G18     30.75R
BALTIMORE      MOSUNNY   46  26  45 E14       30.66R
WASHINGTON DC  PTSUNNY   49  30  48 E8        30.67R

$$



USA.gov is the U.S. government's official web portal to all federal, state and local government web resources and services.